Meteo Giornale » Osservazioni meteo Stati Uniti (USA) » Naples
ore: 14:53 - Osservazioni Meteo Naples
Lat. 26° 9' N Lon. 81° 46' W Alt. 2 metri s.l.m.
31 °C
Temporale
Temp. 24 Ore
25 °C
32 °C
Ovest/Nord-Ovest
11.1 Km/h
Dew point 25 °C
Umidità 70 %
Visibilità 10 Km
Il sole sorge alle ore 07:07
Il sole tramonta alle ore 19:46
| Data e Ora | Cielo e Fenomeni | T °C | DP °C | Um. % | Pres. hPa | Vis. km | Vento km/h | |
|---|---|---|---|---|---|---|---|---|
| Oggi h: 14:53 | Temporale | 31 | 25 | 70 | 1015 | 10 | O/NO 11.1 | |
| Oggi h: 14:20 | Temporale | 32 | 25 | 66 | 1015 | 10 | O 16.7 | |
| Oggi h: 13:53 | Nuvoloso | 32 | 26 | 70 | 1015 | 10 | O/NO 16.7 | |
| Oggi h: 12:53 | Nuvoloso | 32 | 25 | 66 | 1016 | 10 | O/SO 11.1 | |
| Oggi h: 12:19 | Molto Nuvoloso | 32 | 25 | 66 | 1016 | 10 | N 0 | |
| Oggi h: 11:53 | Nuvoloso | 31 | 24 | 66 | 1016 | 10 | N 0 | |
| Oggi h: 10:53 | Sereno | 31 | 24 | 66 | 1016 | 10 | E 7.4 | |
| Oggi h: 09:53 | Sereno | 29 | 25 | 79 | 1016 | 10 | E 7.4 | |
| Oggi h: 08:53 | Sereno | 27 | 25 | 88 | 1016 | 10 | NE 7.4 | |
| Oggi h: 07:53 | Sereno | 26 | 24 | 88 | 1015 | 10 | E/NE 9.3 | |
| Oggi h: 07:35 | Nuvoloso | 25 | 24 | 94 | 1015 | 13 | E/NE 9.3 | |
| Oggi h: 06:53 | Foschia | 25 | 24 | 94 | 1015 | 8 | E/NE 7.4 | |
| Oggi h: 06:50 | Foschia | 25 | 24 | 94 | 1015 | 6 | NE 9.3 | |
| Oggi h: 05:53 | Sereno | 25 | 24 | 94 | 1015 | 10 | E/NE 9.3 | |
| Oggi h: 04:53 | Sereno | 25 | 24 | 94 | 1014 | 10 | NE 9.3 | |
| Oggi h: 03:53 | Sereno | 25 | 24 | 94 | 1014 | 10 | E/NE 7.4 | |
| Oggi h: 02:53 | Sereno | 26 | 24 | 88 | 1015 | 10 | NE 7.4 | |
| Oggi h: 01:53 | Sereno | 26 | 24 | 88 | 1015 | 10 | NE 7.4 | |
| Oggi h: 00:53 | Sereno | 26 | 24 | 88 | 1016 | 10 | E/NE 9.3 | |
| Ieri h: 23:53 | Sereno | 26 | 23 | 83 | 1016 | 10 | E 9.3 | |
| Ieri h: 22:53 | Sereno | 26 | 23 | 83 | 1017 | 10 | E/NE 9.3 | |
| Ieri h: 21:53 | Sereno | 26 | 23 | 83 | 1016 | 10 | NE 7.4 | |
| Ieri h: 20:53 | Coperto | 27 | 23 | 78 | 1016 | 10 | E 9.3 | |
| Ieri h: 19:53 | Poco Nuvoloso | 26 | 24 | 88 | 1016 | 10 | NE 13 | |
| Ieri h: 18:53 | Molto Nuvoloso | 27 | 24 | 83 | 1015 | 10 | E 16.7 | |
| Ieri h: 18:39 | Coperto | 27 | 24 | 83 | 1015 | 10 | E/NE 16.7 | |
| Ieri h: 18:27 | Coperto | 28 | 23 | 74 | 1015 | 10 | NE 16.7 | |
| Ieri h: 18:13 | Coperto | 28 | 23 | 74 | 1015 | 10 | E/NE 22.2 | |
| Ieri h: 17:53 | Molto Nuvoloso | 31 | 24 | 66 | 1015 | 10 | N 5.5 | |
| Ieri h: 17:26 | Nuvoloso | 31 | 24 | 66 | 1014 | 10 | O 11.1 | |
| Ieri h: 16:53 | Temporale nelle vicinanze | 31 | 24 | 66 | 1015 | 10 | O 16.7 | |
| Ieri h: 15:53 | Temporale nelle vicinanze | 32 | 24 | 62 | 1014 | 10 | O 13 | |



